Home > Weather > Pully > Past weeks

Flag for Switzerland Past Weather in Pully, Vaud, Switzerland — Yesterday and Last 2 Weeks

Now
62 °F

Mild.


Feels Like: 62 °F
Forecast: 62 / 86 °F
Wind: 1 mph from Southeast

Location: Aigle

Current Time: Aug 26, 2016 at 5:29:56 AM

Latest Report: Aug 26, 2016 at 4:00 AM


Visibility: N/A

Pressure: 30.07 "Hg

Humidity: 95%

Dew Point: 61 °F

Location of PullyLocation

Past Weather in Pully — Graph

°F

Pully Temperature Yesterday

Maximum temperature yesterday: 84 °F (at 6:00 PM)
Minimum temperature yesterday: 60 °F (at 7:00 AM)
Average temperature yesterday: 71 °F

High & Low Weather Summary for the Past Weeks

 TemperatureHumidityPressure
High84 °F (Aug 25, 6:00 PM)97% (Aug 21, 5:00 AM)30.37 "Hg (Aug 21, 5:00 AM)
Low47 °F (Aug 11, 7:00 AM)34% (Aug 11, 5:00 PM)29.79 "Hg (Aug 17, 5:00 PM)
Average67 °F77%30.10 "Hg
* Reported Aug 11 4:00 AM — Aug 26 4:00 AM, Pully, Weather by CustomWeather, © 2016

Note: Actual official high and low records may vary slightly from our data, if they occured in-between our weather recording intervals... More about our weather records

Advertising

Pully Weather History for the Previous 24 Hours

Scroll right to see more
 ConditionsComfort  
Time TempWeatherWind HumidityBarometerVisibility
4:00 AM
Fri, Aug 26
62 °FMild.1 mph95%30.07 "HgN/A
3:00 AM63 °FMild.2 mph97%30.06 "HgN/A
2:00 AM63 °FMild.1 mph95%30.05 "HgN/A
1:00 AM64 °FMild.1 mph96%30.04 "HgN/A
12:00 AM65 °FMild.1 mph94%30.03 "HgN/A
11:00 PM
Thu, Aug 25
67 °FMild.2 mph89%30.02 "HgN/A
10:00 PM68 °FMild.2 mph84%30.01 "HgN/A
9:00 PM70 °FMild.2 mph86%30.00 "HgN/A
8:00 PM72 °FPassing clouds.1 mph90%29.98 "Hg22 mi
7:00 PM82 °FWarm.2 mph59%29.95 "HgN/A
6:00 PM84 °FWarm.1 mph61%29.96 "HgN/A
5:00 PM84 °FPassing clouds.2 mph54%29.97 "Hg19 mi
4:00 PM84 °FWarm.3 mph54%29.98 "HgN/A
3:00 PM83 °FWarm.7 mph54%30.00 "HgN/A
2:00 PM83 °FSunny.6 mph57%30.01 "Hg19 mi
1:00 PM81 °FWarm.3 mph54%30.03 "HgN/A
12:00 PM78 °FWarm.2 mph60%30.05 "HgN/A
11:00 AM76 °FSunny.5 mph68%30.08 "Hg19 mi
10:00 AM74 °FMild.3 mph66%30.08 "HgN/A
9:00 AM70 °FMild.2 mph82%30.09 "HgN/A
8:00 AM64 °FSunny.5 mph91%30.11 "Hg22 mi
7:00 AM60 °FCool.1 mph94%30.12 "HgN/A
6:00 AM60 °FCool.1 mph94%30.10 "HgN/A
5:00 AM61 °FClear.1 mph93%30.10 "Hg16 mi
Weather by CustomWeather, © 2016

See weather overviewHow to use our weather pages